Flag for India Weather past 2 weeks in Vellore, Tamil Nadu, India

Now
72 °F

Fog.


Feels Like: 67 °F
Forecast: 62 / 83 °F
Wind: No wind

Location: Madras / Minambakkam

Current Time: Dec 23, 2014 at 5:59:52 AM

Latest Report: Dec 23, 2014 at 5:10 AM


Visibility: 2 mi

Pressure: 29.86 "Hg

Humidity: 94%

Dew point: 70 °F

Location of VelloreLocation

Historic Weather in Vellore — Graph

°F

Vellore temperature yesterday

Maximum temperature yesterday: 84 °F (at 12:40 PM)
Minimum temperature yesterday: 75 °F (at 12:10 AM)
Average temperature yesterday: 78 °F

Past Weeks' High & Low Weather Summary

 TemperatureHumidityPressure
High90 °F (Dec 9, 12:40 PM)100% (Dec 9, 4:40 AM)30.04 "Hg (Dec 9, 4:40 AM)
Low70 °F (Dec 20, 6:40 AM)55% (Dec 20, 1:40 PM)29.80 "Hg (Dec 21, 3:40 PM)
Average79 °F83%29.91 "Hg
* Reported Dec 8 4:40 AM — Dec 23 4:40 AM, Vellore, Weather by CustomWeather, © 2014

Note: Actual official high and low records may vary slightly from our data, if they occured in-between our weather recording intervals... More about our weather records

Advertising

Vellore weather history for previous 24 hours

 ConditionsComfort  
Time TempWeatherWind HumidityBarometerVisibility
4:40 AM
Dec 23
72 °FFog.No wind94%29.86 "Hg2 mi
4:10 AM72 °FFog.No wind94%29.86 "Hg2 mi
3:40 AM72 °FFog.No wind94%29.86 "Hg2 mi
3:10 AM73 °FFog.No wind89%29.86 "Hg2 mi
2:40 AM73 °FFog.No wind89%29.86 "Hg2 mi
1:40 AM73 °FPassing clouds.No wind89%29.86 "Hg4 mi
12:40 AM73 °FPassing clouds.No wind89%29.89 "Hg4 mi
12:10 AM73 °FPassing clouds.No wind89%29.89 "Hg4 mi
11:40 PM
Dec 22
75 °FPassing clouds.No wind83%29.89 "Hg4 mi
10:40 PM75 °FPassing clouds.3 mph83%29.92 "Hg4 mi
9:40 PM77 °FPassing clouds.2 mph79%29.92 "Hg4 mi
8:40 PM77 °FPassing clouds.3 mph79%29.92 "Hg4 mi
7:40 PM77 °FPassing clouds.5 mph79%29.89 "Hg4 mi
6:40 PM79 °FPassing clouds.8 mph74%29.86 "Hg4 mi
6:10 PM79 °FScattered clouds.5 mph74%29.86 "Hg4 mi
5:40 PM79 °FScattered clouds.7 mph74%29.86 "Hg4 mi
5:10 PM81 °FScattered clouds.7 mph66%29.83 "Hg4 mi
4:40 PM81 °FScattered clouds.8 mph66%29.83 "Hg4 mi
3:40 PM81 °FScattered clouds.8 mph62%29.80 "Hg4 mi
3:10 PM82 °FScattered clouds.7 mph62%29.83 "Hg4 mi
2:40 PM82 °FScattered clouds.12 mph62%29.83 "Hg4 mi
2:10 PM82 °FScattered clouds.10 mph62%29.83 "Hg4 mi
1:40 PM84 °FScattered clouds.12 mph62%29.83 "Hg4 mi
12:40 PM84 °FScattered clouds.15 mph62%29.86 "Hg4 mi
11:40 AM81 °FScattered clouds.12 mph70%29.89 "Hg4 mi
11:10 AM81 °FScattered clouds.12 mph70%29.92 "Hg4 mi
10:40 AM82 °FBroken clouds.9 mph70%29.92 "Hg3 mi
9:40 AM81 °FFog.5 mph79%29.92 "Hg2 mi
8:40 AM77 °FFog.6 mph83%29.92 "Hg1 mi
8:10 AM77 °FFog.5 mph89%29.92 "Hg1 mi
7:40 AM75 °FFog.3 mph89%29.89 "Hg1 mi
6:40 AM75 °FFog.5 mph89%29.86 "Hg1 mi
6:10 AM75 °FPassing clouds.5 mph89%29.86 "Hg2 mi
5:40 AM75 °FFog.6 mph89%29.86 "Hg2 mi
5:10 AM75 °FFog.6 mph89%29.83 "Hg2 mi
Weather by CustomWeather, © 2014

See weather overviewHow to use our weather pages